FW7352 Weather Reports


time (UTC)temp
F
wind
direction
speed
knots
gust
knots
rain 1hr
in
rain 24hr
in
rain mn
in
humidity
%
barometer
mb
20260507220057 49 262 4.3 13.9 0.00 0.00 0.00 62 1013.6
20260507214548 50 250 5.2 14.8 0.00 0.01 0.00 63 1013.5
20260507213052 52 262 5.2 15.6 0.00 0.01 0.00 60 1013.4
20260507211550 52 267 7.0 13.9 0.00 0.01 0.00 63 1013.4
20260507210105 52 249 7.0 16.5 0.00 0.01 0.00 62 1013.2
20260507204549 53 272 6.1 20.9 0.00 0.10 0.00 61 1013.1
20260507203113 53 319 6.1 17.4 0.00 0.10 0.00 61 1013.4
20260507201550 54 286 5.2 13.9 0.00 0.10 0.00 61 1013.3
20260507200053 53 209 4.3 12.2 0.00 0.10 0.00 63 1013.1
20260507194602 54 260 7.0 12.2 0.00 0.11 0.00 63 1013.4
20260507193050 55 306 4.3 9.6 0.00 0.11 0.00 62 1013.6
20260507191549 54 273 3.5 12.2 0.00 0.11 0.00 63 1013.6
20260507190055 55 279 5.2 13.0 0.00 0.11 0.00 67 1013.7
20260507184550 56 245 6.1 12.2 0.00 0.13 0.00 63 1013.7
20260507183047 54 262 4.3 12.2 0.00 0.13 0.00 75 1013.6
20260507181549 53 228 4.3 15.6 0.00 0.13 0.00 72 1013.5
20260507180048 52 265 4.3 12.2 0.00 0.13 0.00 75 1013.7
20260507174547 50 319 5.2 13.0 0.00 0.13 0.00 77 1013.9
20260507173125 49 225 3.5 12.2 0.00 0.13 0.00 78 1014.1
20260507171554 50 279 5.2 12.2 0.00 0.13 0.00 77 1014.3
20260507170050 50 296 2.6 12.2 0.00 0.13 0.00 81 1014.4
20260507164552 48 293 3.5 13.0 0.00 0.13 0.00 81 1014.5
20260507163047 48 306 2.6 15.6 0.00 0.13 0.00 82 1014.6
20260507161552 50 221 2.6 9.6 0.00 0.13 0.00 81 1014.8
20260507160101 47 236 3.5 8.7 0.00 0.13 0.00 85 1015.0
20260507154557 48 0 2.6 12.2 0.00 0.13 0.00 86 1015.3
20260507153057 47 257 2.6 11.3 0.00 0.13 0.00 86 1015.1
20260507151552 45 246 4.3 11.3 0.00 0.13 0.00 86 1015.3
20260507150051 44 338 4.3 9.6 0.00 0.13 0.00 86 1015.1
20260507144612 43 305 3.5 10.4 0.00 0.13 0.00 91 1015.3
20260507143059 41 275 1.7 6.1 0.00 0.13 0.00 96 1015.4
20260507141557 40 335 1.7 7.0 0.00 0.13 0.00 99 1015.7
20260507140053 39 281 1.7 6.1 0.00 0.13 0.00 99 1015.9
20260507134553 38 278 1.7 7.8 0.00 0.15 0.00 100 1015.9
20260507133125 37 234 2.6 7.8 0.00 0.15 0.00 100 1016.0
20260507131548 38 252 3.5 6.1 0.00 0.15 0.00 100 1016.2
20260507130058 39 348 2.6 6.1 0.00 0.15 0.00 100 1016.0
20260507124555 39 298 0.9 3.5 0.00 0.22 0.00 100 1016.2
20260507123052 39 298 1.7 5.2 0.00 0.22 0.00 100 1016.2
20260507121552 40 0 0.0 2.6 0.00 0.22 0.00 100 1016.0
20260507120048 40 355 0.0 5.2 0.00 0.22 0.00 100 1015.9
20260507114559 40 28 2.6 9.6 0.00 0.31 0.00 100 1015.6
20260507113047 41 296 0.9 6.1 0.00 0.31 0.00 100 1015.5
20260507111549 41 232 2.6 7.8 0.00 0.31 0.00 100 1015.3
20260507110052 41 286 2.6 7.8 0.00 0.31 0.00 100 1015.1
20260507104551 41 319 1.7 5.2 0.00 0.40 0.00 100 1015.2
20260507103054 41 250 1.7 4.3 0.00 0.40 0.00 100 1015.0
20260507101551 41 242 1.7 6.1 0.00 0.40 0.00 100 1015.1
20260507100053 42 272 1.7 7.0 0.00 0.40 0.00 100 1015.3
20260507094559 42 269 1.7 5.2 0.00 0.42 0.00 100 1015.0
20260507093054 42 252 1.7 9.6 0.00 0.42 0.00 100 1015.0
20260507091552 42 219 2.6 6.1 0.00 0.42 0.00 100 1015.0
20260507090051 42 240 1.7 7.8 0.00 0.42 0.00 100 1014.6
20260507084557 43 267 3.5 7.8 0.00 0.42 0.00 100 1015.0
20260507083056 43 254 1.7 8.7 0.00 0.42 0.00 100 1014.9
20260507081557 43 246 0.0 6.1 0.00 0.42 0.00 100 1014.7
20260507080056 43 262 3.5 6.1 0.00 0.42 0.00 100 1015.1
20260507074550 44 251 0.9 7.8 0.00 0.42 0.00 100 1015.2
20260507073101 44 263 1.7 6.1 0.00 0.42 0.00 100 1015.4
20260507071553 44 262 0.9 2.6 0.00 0.42 0.00 100 1015.3
20260507070058 44 248 1.7 8.7 0.00 0.42 0.00 100 1015.2
20260507064555 44 268 1.7 8.7 0.00 0.42 0.00 100 1015.0
20260507063049 44 235 2.6 7.0 0.00 0.42 0.00 100 1015.2
20260507061549 45 269 4.3 8.7 0.00 0.42 0.00 100 1015.3
20260507060056 46 261 3.5 7.0 0.00 0.42 0.00 100 1015.5
20260507054549 46 262 2.6 7.0 0.00 0.42 0.00 100 1015.6
20260507053058 46 225 4.3 10.4 0.00 0.42 0.00 100 1015.7
20260507051551 47 270 4.3 9.6 0.00 0.42 0.00 100 1015.8
20260507050053 47 254 2.6 6.1 0.00 0.42 0.00 100 1015.9
20260507044559 48 243 3.5 8.7 0.00 0.42 0.00 100 1015.7
20260507043056 48 244 2.6 7.8 0.00 0.42 0.00 100 1015.7
20260507041554 48 247 3.5 8.7 0.00 0.42 0.00 100 1015.4
20260507040050 48 253 2.6 7.0 0.00 0.42 0.00 100 1015.5
20260507034553 48 234 2.6 7.0 0.00 0.42 0.42 100 1015.3
20260507033102 49 212 1.7 6.1 0.00 0.42 0.42 100 1015.3
20260507031600 49 233 5.2 12.2 0.00 0.42 0.42 100 1016.5
20260507030107 49 252 3.5 10.4 0.00 0.42 0.42 100 1016.5
20260507024608 49 249 3.5 7.8 0.00 0.42 0.42 100 1016.5
20260507023053 49 223 2.6 6.1 0.00 0.42 0.42 100 1015.9
20260507021557 49 246 3.5 8.7 0.00 0.42 0.42 100 1016.3
20260507020057 49 247 3.5 7.8 0.00 0.42 0.42 100 1016.0
20260507014555 49 277 3.5 6.1 0.00 0.42 0.42 100 1015.8
20260507013053 50 231 2.6 6.1 0.00 0.42 0.42 100 1015.4
20260507011556 50 244 1.7 6.1 0.00 0.42 0.42 100 1016.0
20260507010050 50 227 3.5 6.1 0.00 0.42 0.42 100 1015.9
20260507004551 50 225 1.7 4.3 0.00 0.42 0.42 100 1015.0
20260507003047 50 234 2.6 7.8 0.00 0.42 0.42 100 1015.7
20260507001545 50 248 2.6 6.1 0.00 0.42 0.42 100 1016.0
20260507000046 50 273 1.7 7.8 0.00 0.42 0.42 100 1015.7
20260506234555 51 248 3.5 8.7 0.00 0.42 0.42 100 1015.9
20260506233052 51 257 2.6 7.8 0.00 0.42 0.42 100 1015.7
20260506231554 52 281 4.3 10.4 0.00 0.42 0.42 100 1015.8
20260506230059 52 234 4.3 10.4 0.00 0.42 0.42 100 1015.9
20260506224551 53 265 4.3 10.4 0.00 0.42 0.42 100 1015.8
20260506223048 54 267 4.3 11.3 0.00 0.42 0.42 100 1015.4
20260506221551 54 266 6.1 13.9 0.01 0.42 0.42 100 1015.2